Presure
248 243 233 221 235 229 231 242 251 266 287 276 262 256 250 243 239 237 233 231 228 239 226 222 224 221 222 230 225 220 229 225 230 235 254 127 256 242
239 228 232 231 233 245 257 291 266 245 250 253 245 238 229 252 260 245 240 241 240 224 220 223 225 224 230 233 227 226 220 229 230 243 260 256 255 243
229 226 227 238 253 294 233 262 315 343 328 314 280 289 269 251 245 243 243 238 233 234 230 223 220 219 232 230 229 227 229 240 242 265 253 249 251 255
224 228 237 285 270 229 227 336 329 335 307 335 314 277 282 257 263 239 239 232 242 239 234 249 232 240 239 238 247 245 242 265 263 254 259 264 258 260
226 232 274 256 234 269 219 348 327 317 316 307 305 299 292 283 275 266 252 241 247 254 258 255 261 265 262 267 281 275 272 255 247 206 205 205 204 203
237 270 250 236 211 228 243 257 307 296 291 285 286 287 290 292 295 306 300 304 304 301 301 298 292 289 286 248 224 200 222 226 232 236 238 241 243 248
269 253 233 214 233 232 218 258 234 220 235 237 235 235 233 235 245 238 236 234 235 235 238 237 236 239 239 241 242 241 241 239 239 240 239 240 240 240
252 232 219 226 243 228 212 237 226 222 221 227 227 226 224 221 216 216 221 230 229 223 235 240 241 244 243 244 243 243 250 257 265 272 273 273 271 276
240 228 205 237 254 229 220 219 224 226 228 225 225 227 238 215 233 239 240 237 245 252 241 241 238 243 254 259 262 268 278 291 280 274 278 283 293 294
223 207 212 226 251 239 222 227 225 217 225 223 232 234 236 239 238 250 247 232 241 239 241 254 264 280 311 319 330 297 276 288 316 359 361 399 389 388
216 206 227 227 244 244 230 214 226 221 225 230 235 242 247 251 253 233 235 247 374 325 305 279 281 260 275 284 298 355 360 344 335 358 353 353 360 349
213 225 222 224 246 242 237 213 225 228 236 241 249 254 239 228 231 248 345 286 260 272 270 277 377 360 343 348 360 344 356 344 336 329 337 337 335 331
218 224 215 219 227 241 238 227 232 231 231 237 232 226 229 237 253 304 278 259 264 292 294 359 342 331 319 331 349 347 333 357 361 344 329 327 325 325
223 217 214 237 245 240 233 231 232 234 239 228 216 233 246 272 301 281 259 260 287 289 371 339 320 310 310 335 327 329 370 351 334 314 346 330 307 307
219 211 225 245 238 230 235 230 240 226 232 230 237 245 268 310 281 252 265 288 282 386 359 325 305 296 333 320 315 369 337 332 317 331 315 298 278 268
208 210 244 234 231 233 239 243 228 232 230 238 252 255 324 250 263 270 280 278 331 384 359 312 294 342 323 314 365 337 316 298 331 300 278 268 266 260
212 246 234 233 238 242 231 249 238 228 249 288 301 327 261 260 281 272 272 282 358 381 357 306 362 339 316 361 336 309 297 317 302 275 268 274 273 273
245 229 229 244 233 243 250 220 228 261 316 327 303 254 261 282 275 277 285 345 344 360 359 303 365 332 312 361 307 299 315 296 274 271 262 261 265 255
227 229 231 230 247 248 239 235 238 277 244 264 266 268 285 286 273 279 284 346 337 369 363 319 291 320 330 335 345 308 282 275 265 263 254 257 260 255
232 231 228 228 239 257 232 240 256 276 248 268 279 285 293 270 273 280 293 343 330 397 351 318 333 308 351 314 316 284 280 259 262 253 250 252 248 257
225 225 229 242 262 234 243 249 283 279 255 275 279 296 273 275 274 285 304 348 331 399 330 305 370 313 356 297 310 273 269 269 252 261 251 251 251 252
231 237 248 257 231 236 244 275 292 252 256 275 255 287 270 278 283 294 333 363 339 398 326 292 401 316 358 301 313 275 263 254 252 246 252 251 253 261
239 251 253 231 244 239 258 300 250 264 287 256 287 271 273 283 291 338 377 378 333 390 316 297 375 318 312 315 297 272 264 256 258 254 249 256 262 253
Wind_Speed
96 94 94 96 96 99 105 110 118 119 105 103 102 99 100 100 98 99 101 94 95 88 95 100 100 101 101 100 95 93 98 87 84 87 83 47 63 63
93 95 96 96 100 108 118 108 102 104 106 106 101 92 97 93 81 87 91 88 81 89 95 99 101 101 103 99 96 97 88 95 92 93 77 68 66 66
91 96 100 105 111 100 88 106 81 72 77 78 91 84 90 90 89 85 88 84 84 87 92 98 99 100 102 97 98 96 101 99 96 79 75 73 71 70
93 100 106 97 91 76 80 55 54 52 50 56 64 84 81 87 86 80 83 82 85 86 92 95 98 102 101 102 102 103 100 96 84 77 75 74 73 71
96 104 77 83 79 74 73 26 25 23 26 33 47 62 67 74 77 82 82 83 88 89 95 94 101 102 102 102 95 91 84 76 74 60 61 63 65 67
105 71 74 74 69 69 64 44 21 23 26 29 35 40 47 54 61 70 74 79 82 80 80 80 80 82 82 73 68 63 67 70 72 74 76 78 79 81
65 65 70 65 66 66 63 43 45 46 37 35 33 33 34 36 39 42 47 50 52 55 60 61 65 69 69 71 72 73 74 75 76 78 80 81 82 83
59 67 62 66 62 60 60 47 47 45 42 36 37 39 41 44 48 51 54 56 59 61 67 66 72 74 74 75 76 76 79 83 88 92 93 94 94 96
59 62 58 61 55 57 58 57 52 47 45 45 44 46 49 53 53 58 61 61 65 69 74 72 75 79 84 86 88 90 93 96 89 88 89 90 90 91
55 54 59 59 55 55 56 53 53 54 53 52 55 57 59 62 64 69 70 69 74 75 80 87 89 95 91 91 87 83 82 88 82 60 57 42 44 43
53 56 58 58 58 56 56 59 58 59 58 58 61 64 67 69 70 71 76 81 66 70 72 75 76 79 86 85 87 60 54 55 54 42 42 40 35 40
53 56 56 58 58 58 58 61 60 60 61 63 66 68 68 71 74 78 66 69 73 76 76 81 52 51 59 58 48 46 39 36 38 38 34 33 34 32
53 55 56 59 60 59 60 63 63 64 64 65 66 70 74 77 78 68 70 71 75 79 79 48 51 50 49 50 46 38 35 30 22 23 25 27 28 27
54 55 57 61 59 59 63 65 66 67 68 68 73 75 76 80 69 67 69 74 77 77 46 43 47 48 48 41 42 37 29 19 19 22 17 8 14 15
53 55 61 59 61 65 65 67 67 68 70 72 74 74 79 64 65 69 74 74 75 52 42 39 44 47 37 38 39 34 21 20 16 10 9 11 15 22
54 58 59 61 63 65 66 67 70 72 74 75 74 74 61 67 69 72 72 74 69 49 40 36 41 32 35 33 27 19 16 20 18 9 12 14 14 23
57 58 61 63 63 64 68 70 72 75 78 80 75 59 64 70 67 68 70 71 60 47 41 36 33 29 31 26 19 17 20 17 12 10 13 11 10 16
57 61 63 62 65 67 68 72 75 77 74 63 60 63 70 67 66 66 68 68 57 48 40 35 33 27 29 25 17 20 18 12 11 9 14 17 13 21
60 62 63 65 65 66 68 71 74 74 68 72 70 71 68 65 66 66 68 67 56 47 40 32 32 25 28 26 18 24 16 13 12 10 14 15 14 17
59 61 64 66 67 69 71 72 75 72 70 74 71 69 65 65 66 67 69 65 54 40 39 31 30 26 22 22 16 21 17 18 11 11 15 16 19 21
61 63 66 68 72 70 72 75 76 70 73 72 72 67 65 66 67 69 73 66 51 38 36 32 32 23 20 22 21 21 17 12 13 12 17 19 21 20
63 65 69 70 69 71 73 79 68 70 70 73 70 67 67 68 69 74 74 63 48 36 33 32 31 23 21 23 25 25 17 16 14 14 15 22 25 24
67 67 67 66 71 72 76 69 69 73 70 69 70 69 69 71 74 77 63 50 42 34 30 31 28 24 23 25 29 26 19 17 14 11 11 18 22 25
Wind_Direction
295 295 296 294 298 295 296 297 294 291 284 282 282 282 281 279 280 279 280 282 281 268 278 285 284 288 288 290 291 292 293 295 293 293 290 275 276 271
298 298 300 299 300 301 299 294 293 294 292 286 283 282 278 276 272 277 278 277 270 276 280 281 282 285 286 287 288 287 291 290 291 291 286 279 275 270
302 301 301 303 304 301 301 295 285 277 271 265 268 265 265 272 274 275 277 277 276 276 276 278 282 284 282 285 286 287 286 287 288 284 281 279 275 273
302 304 305 305 305 304 312 287 284 282 272 265 260 261 262 267 269 273 275 274 275 272 274 272 275 278 279 280 280 279 283 281 281 279 278 276 273 272
303 305 303 306 310 315 317 310 308 301 293 285 277 270 267 270 268 269 272 275 276 274 271 273 274 275 275 276 277 277 278 278 275 273 270 268 265 263
303 299 301 305 308 312 314 317 330 326 312 304 294 286 279 275 274 270 272 272 272 273 275 276 278 279 278 279 279 278 279 279 280 280 279 278 276 275
296 298 300 302 305 307 310 330 322 317 329 329 325 317 309 302 296 295 291 291 290 291 289 287 287 284 283 283 282 282 281 280 279 277 275 273 272 271
292 293 299 301 306 305 304 315 315 315 313 313 309 306 303 298 292 290 290 292 290 287 288 288 286 284 284 283 282 282 283 284 282 282 281 279 278 278
289 293 295 301 305 302 303 305 310 314 316 313 309 306 310 292 301 303 302 297 298 297 294 291 289 289 290 290 290 289 289 287 285 283 282 280 280 279
291 292 294 301 306 303 300 304 305 302 309 307 316 315 313 310 307 306 303 300 300 298 297 294 293 288 288 286 286 287 287 287 286 282 278 275 274 273
288 291 299 302 304 306 306 304 310 308 310 313 314 314 313 311 308 306 303 301 300 296 294 294 294 292 293 292 289 289 288 286 284 280 279 277 272 274
290 298 300 303 307 308 308 302 304 308 313 315 316 312 310 307 306 304 303 303 302 303 303 300 298 294 293 293 293 291 290 286 281 280 279 276 276 277
296 299 302 306 308 307 305 304 309 311 313 315 313 309 308 307 307 306 304 304 305 305 305 301 298 295 292 294 296 297 294 290 274 274 274 271 270 273
297 300 302 305 306 306 306 308 310 312 315 313 308 310 310 313 309 308 307 307 307 308 306 301 296 295 297 294 295 301 305 281 277 273 303 255 265 279
299 301 305 305 306 306 308 308 311 311 313 311 309 311 316 310 312 309 310 309 310 315 304 297 294 294 290 292 297 298 282 285 289 272 245 272 279 286
300 302 303 303 302 304 310 312 310 312 310 310 312 312 312 315 315 312 310 310 318 314 303 292 292 286 284 291 291 272 268 281 298 251 267 276 286 282
299 301 302 303 306 310 309 314 313 311 313 314 315 314 315 317 313 312 311 312 321 312 303 294 304 284 285 288 266 261 270 283 238 252 280 289 274 281
300 301 303 308 308 311 314 310 312 318 319 317 317 318 319 315 315 313 316 324 319 312 300 296 302 283 285 277 257 263 261 235 228 239 272 286 293 297
299 302 306 308 314 314 313 313 315 320 318 323 323 320 317 317 316 317 320 324 318 312 298 299 293 277 285 273 274 221 213 229 245 238 279 288 293 291
301 304 305 308 313 317 313 315 319 319 321 323 322 320 319 317 317 320 324 323 317 302 297 294 294 275 270 257 239 208 214 249 252 269 282 290 300 311
301 303 306 313 316 313 317 318 321 319 322 321 322 320 319 319 318 322 323 320 313 299 295 292 295 272 269 252 235 230 226 223 268 278 293 298 299 302
303 308 313 316 312 315 318 322 320 323 322 321 323 320 319 320 322 322 319 316 309 296 290 289 289 274 268 248 229 214 237 244 257 275 282 294 299 300
308 312 314 312 317 316 322 321 322 323 320 322 320 319 320 323 323 318 314 309 303 290 286 289 283 272 243 232 214 219 229 234 249 254 279 289 291 304